Weather in Halikounas

Greece     39°27′26″N   19°52′14″E
temp.,
°C
wind,
m/s
gust,
m/s
humid.,
%
clouds,
%
prec.,
mm/h
press.,
hPa
HPBL,
m
11 may, tue
tue1100:00+19nw22780 0.0 101726
03:00+19nnw22750 0.0 101642
06:00+19ene11750 0.0 101523
09:00+19nw11725 0.0 101624
12:00+19sw2263100 0.0 1015123
15:00+20wsw55635 0.0 1015206
18:00+20wsw44730 0.0 1014183
21:00+19wsw22780 0.0 101324
12 may, wed
wed1200:00+19s22770 0.0 101323
03:00+19s227956 0.0 101250
06:00+19se34795 0.0 1011175
09:00+19sse458294 0.0 1011271
12:00+19sse4483100 0.0 1011352
15:00+19ssw44790 0.0 1010385
18:00+19ssw22800 0.1 1010255
21:00+19sw23790 0.1 1010232
13 may, thu
thu1300:00+19nw34790 0.0 1010178
03:00+18nnw33781 0.0 1009204
06:00+18nnw56741 0.0 1010361
09:00+18n33680 0.0 1010342
12:00+17wnw22663 0.0 1011289
15:00+18wsw55585 0.0 1011384
18:00+19wsw66575 0.0 1011488
21:00+19sw4673100 0.1 1011646
14 may, fri
fri1400:00+18s667711 0.3 1011734
03:00+18ese22750 1.4 1012150
06:00+18e43760 0.1 1012336
09:00+18se43750 0.1 1014405
12:00+18s44725 0.0 1015444
15:00+19ssw447110 0.0 1016403
18:00+19s44644 0.0 1016413
21:00+19se457021 0.0 1016200
15 may, sat
sat1500:00+19se457797 0.0 1016257
03:00+19ese55815 0.0 1015374
06:00+18se788180 0.0 1014518
09:00+18se7874100 0.0 1015469
12:00+18se8975100 0.0 1014392
15:00+19sse71077100 0.1 1012399
18:00+19sse5875100 1.4 1011403
21:00+19wsw458123 6.1 1009276